Weather History for Superior, WI

Change the Weather History Date:

Monday, September 3, 2012

  Actual Average Record
Temperature  
Mean Temperature 72 °F -  
Max Temperature 87 °F 69 °F 90 °F (1948)
Min Temperature 57 °F 52 °F 33 °F (1974)
Cooling Degree Days 7    
Growing Degree Days 22 (Base 50)    
Moisture  
Dew Point 58 °F    
Average Humidity 68    
Maximum Humidity 100    
Minimum Humidity 22    
Precipitation  
Precipitation 0.00 in - - ()
Sea Level Pressure  
Sea Level Pressure 29.86 in    
Wind  
Wind Speed 2 mph (WSW)    
Max Wind Speed 8 mph    
Max Gust Speed -    
Visibility 10 miles    
Events      
Averages and records for this station are not official NWS values.
T = Trace of Precipitation, MM = Missing Value Source: NWS Daily Summary

Daily Weather History Graph

Daily Weather History Graph

Search for Another Location

Airport:

Trip Planner

Search our weather history database for the weather conditions in past years. The results will help you decide how hot, cold, wet, or windy it might be!

Date:

Astronomy

Sep. 03, 2012 Rise Set
Actual Time 6:31 AM CDT 7:42 PM CDT
Civil Twilight 6:00 AM CDT 8:13 PM CDT
Nautical Twilight 5:22 AM CDT 8:51 PM CDT
Astronomical Twilight 4:42 AM CDT 9:30 PM CDT
Moon 8:44 PM CDT (9/3) 9:56 AM CDT (9/3)
Length of Visible Light 14h 13m
Length of Day
13h 11m
Waning Gibbous, 90% of the Moon is Illuminated
Sep 3
Waning Gibbous
Sep 8
Last Quarter
Sep 15
New
Sep 22
First Quarter
Sep 29
Full

Hourly Weather History & Observations

Time (CDT) Temp. Heat Index Dew Point Humidity Pressure Visibility Wind Dir Wind Speed Gust Speed Precip Events Conditions
12:15 AM 64.4 °F - 62.6 °F 94% 29.83 in 10.0 mi Calm Calm - N/A   Mostly Cloudy
12:35 AM 64.4 °F - 62.6 °F 94% 29.83 in 10.0 mi Calm Calm - N/A   Mostly Cloudy
12:55 AM 64.4 °F - 62.6 °F 94% 29.83 in 10.0 mi East 3.5 mph - N/A   Scattered Clouds
1:15 AM 62.6 °F - 60.8 °F 94% 29.82 in 10.0 mi Calm Calm - N/A   Scattered Clouds
1:35 AM 62.6 °F - 60.8 °F 94% 29.82 in 10.0 mi Calm Calm - N/A   Mostly Cloudy
1:55 AM 62.6 °F - 60.8 °F 94% 29.82 in 10.0 mi NNE 3.5 mph - N/A   Mostly Cloudy
2:15 AM 64.4 °F - 62.6 °F 94% 29.82 in 10.0 mi Calm Calm - N/A   Mostly Cloudy
2:35 AM 64.4 °F - 60.8 °F 88% 29.82 in 10.0 mi Calm Calm - N/A   Scattered Clouds
3:15 AM 60.8 °F - 59.0 °F 94% 29.83 in 10.0 mi Calm Calm - N/A   Scattered Clouds
3:35 AM 62.6 °F - 60.8 °F 94% 29.83 in 10.0 mi SW 3.5 mph - N/A   Scattered Clouds
3:55 AM 62.6 °F - 60.8 °F 94% 29.83 in 10.0 mi SSW 3.5 mph - N/A   Clear
4:15 AM 60.8 °F - 60.8 °F 100% 29.83 in 7.0 mi Calm Calm - N/A   Clear
4:35 AM 60.8 °F - 59.0 °F 94% 29.84 in 7.0 mi Calm Calm - N/A   Clear
5:15 AM 62.6 °F - 60.8 °F 94% 29.84 in 10.0 mi WSW 3.5 mph - N/A   Clear
5:35 AM 62.6 °F - 60.8 °F 94% 29.84 in 10.0 mi Calm Calm - N/A   Clear
5:55 AM 60.8 °F - 57.2 °F 88% 29.85 in 4.0 mi South 3.5 mph - N/A   Clear
6:15 AM 60.8 °F - 57.2 °F 88% 29.85 in 5.0 mi South 4.6 mph - N/A   Clear
6:35 AM 60.8 °F - 57.2 °F 88% 29.85 in 5.0 mi SSW 3.5 mph - N/A   Clear
6:55 AM 60.8 °F - 59.0 °F 94% 29.86 in 5.0 mi SW 3.5 mph - N/A   Clear
7:15 AM 62.6 °F - 60.8 °F 94% 29.86 in 10.0 mi SW 5.8 mph - N/A   Clear
7:35 AM 62.6 °F - 62.6 °F 100% 29.87 in 10.0 mi SSW 3.5 mph - N/A   Clear
7:55 AM 64.4 °F - 62.6 °F 94% 29.87 in 10.0 mi SW 3.5 mph - N/A   Clear
8:15 AM 66.2 °F - 64.4 °F 94% 29.87 in 10.0 mi SW 4.6 mph - N/A   Clear
8:35 AM 68.0 °F - 64.4 °F 88% 29.87 in 10.0 mi WSW 3.5 mph - N/A   Clear
8:55 AM 69.8 °F - 64.4 °F 83% 29.87 in 10.0 mi Calm Calm - N/A   Clear
9:15 AM 71.6 °F - 64.4 °F 78% 29.87 in 10.0 mi SSW 3.5 mph - N/A   Clear
9:35 AM 73.4 °F - 64.4 °F 73% 29.88 in 10.0 mi SW 4.6 mph - N/A   Clear
9:55 AM 75.2 °F - 64.4 °F 69% 29.88 in 10.0 mi South 4.6 mph - N/A   Clear
10:15 AM 75.2 °F - 64.4 °F 69% 29.88 in 10.0 mi Calm Calm - N/A   Clear
10:35 AM 77.0 °F - 64.4 °F 65% 29.89 in 10.0 mi Calm Calm - N/A   Clear
10:55 AM 78.8 °F - 64.4 °F 61% 29.89 in 10.0 mi SW 4.6 mph - N/A   Clear
11:15 AM 78.8 °F - 64.4 °F 61% 29.89 in 10.0 mi Calm Calm - N/A   Clear
11:35 AM 80.6 °F 82.3 °F 64.4 °F 58% 29.89 in 10.0 mi Calm Calm - N/A   Clear
11:55 AM 80.6 °F 81.8 °F 62.6 °F 54% 29.89 in 10.0 mi WSW 3.5 mph - N/A   Clear
12:15 PM 80.6 °F 81.5 °F 60.8 °F 51% 29.88 in 10.0 mi West 3.5 mph - N/A   Clear
12:35 PM 82.4 °F 82.9 °F 60.8 °F 48% 29.88 in 10.0 mi SW 3.5 mph - N/A   Clear
12:55 PM 84.2 °F 83.0 °F 55.4 °F 37% 29.87 in 10.0 mi Calm Calm - N/A   Clear
1:15 PM 84.2 °F 83.5 °F 57.2 °F 40% 29.87 in 10.0 mi Calm Calm - N/A   Clear
1:35 PM 86.0 °F 84.2 °F 53.6 °F 33% 29.87 in 10.0 mi Calm Calm - N/A   Clear
1:55 PM 87.8 °F 85.7 °F 53.6 °F 31% 29.86 in 10.0 mi West 4.6 mph - N/A   Clear
2:15 PM 86.0 °F - 51.8 °F 31% 29.86 in 10.0 mi NNW 5.8 mph - N/A   Clear
2:35 PM 87.8 °F - 48.2 °F 25% 29.85 in 10.0 mi North 5.8 mph - N/A   Clear
2:55 PM 87.8 °F - 48.2 °F 25% 29.85 in 10.0 mi WNW 4.6 mph - N/A   Clear
3:15 PM 87.8 °F - 46.4 °F 24% 29.85 in 10.0 mi West 3.5 mph - N/A   Clear
3:35 PM 87.8 °F - 44.6 °F 22% 29.85 in 10.0 mi Calm Calm - N/A   Clear
3:55 PM 87.8 °F - 48.2 °F 25% 29.85 in 10.0 mi West 8.1 mph - N/A   Clear
4:15 PM 87.8 °F - 50.0 °F 27% 29.85 in 10.0 mi WNW 6.9 mph - N/A   Clear
4:35 PM 87.8 °F - 46.4 °F 24% 29.85 in 10.0 mi West 3.5 mph - N/A   Clear
4:55 PM 84.2 °F - 48.2 °F 29% 29.85 in 10.0 mi West 4.6 mph - N/A   Clear
5:15 PM 82.4 °F - 51.8 °F 35% 29.84 in 10.0 mi WNW 3.5 mph - N/A   Clear
5:35 PM 86.0 °F - 50.0 °F 29% 29.84 in 10.0 mi SW 4.6 mph - N/A   Clear
5:55 PM 84.2 °F - 50.0 °F 30% 29.84 in 10.0 mi West 4.6 mph - N/A   Clear
6:15 PM 82.4 °F - 51.8 °F 35% 29.84 in 10.0 mi WNW 4.6 mph - N/A   Clear
6:35 PM 80.6 °F - 51.8 °F 37% 29.85 in 10.0 mi West 3.5 mph - N/A   Clear
6:55 PM 78.8 °F - 55.4 °F 44% 29.85 in 10.0 mi Calm Calm - N/A   Clear
7:35 PM 68.0 °F - 59.0 °F 73% 29.85 in 10.0 mi Calm Calm - N/A   Clear
7:55 PM 68.0 °F - 57.2 °F 68% 29.85 in 10.0 mi Calm Calm - N/A   Clear
8:15 PM 66.2 °F - 57.2 °F 73% 29.86 in 10.0 mi Calm Calm - N/A   Clear
8:35 PM 66.2 °F - 57.2 °F 73% 29.86 in 10.0 mi WSW 3.5 mph - N/A   Clear
8:55 PM 64.4 °F - 55.4 °F 73% 29.87 in 10.0 mi Calm Calm - N/A   Clear
9:15 PM 62.6 °F - 55.4 °F 77% 29.86 in 10.0 mi Calm Calm - N/A   Clear
9:35 PM 60.8 °F - 55.4 °F 82% 29.86 in 10.0 mi South 3.5 mph - N/A   Clear
9:55 PM 60.8 °F - 55.4 °F 82% 29.86 in 10.0 mi Calm Calm - N/A   Clear
10:15 PM 57.2 °F - 55.4 °F 94% 29.86 in 10.0 mi Calm Calm - N/A   Clear
10:35 PM 59.0 °F - 57.2 °F 94% 29.85 in 10.0 mi Calm Calm - N/A   Clear
10:55 PM 60.8 °F - 57.2 °F 88% 29.86 in 10.0 mi SSW 3.5 mph - N/A   Clear
11:15 PM 62.6 °F - 57.2 °F 82% 29.87 in 10.0 mi SW 4.6 mph - N/A   Clear
11:35 PM 62.6 °F - 57.2 °F 82% 29.86 in 10.0 mi Calm Calm - N/A   Clear
11:55 PM 60.8 °F - 55.4 °F 82% 29.87 in 10.0 mi SSW 3.5 mph - N/A   Clear